Flag for Germany Weather past 2 weeks in Detmold, North Rhine-Westphalia, Germany

Now
39 °F

Low clouds.


Feels Like: 37 °F
Forecast: 44 / 50 °F
Wind: 3 mph from Southwest

Location: Bad Lippspringe

Current Time: Dec 21, 2014 at 7:36:22 AM

Latest Report: Dec 21, 2014 at 7:00 AM


Visibility: 8 mi

Pressure: 30.34 "Hg

Humidity: 92%

Dew point: 37 °F

Location of DetmoldLocation

Historic Weather in Detmold — Graph

°F

Detmold temperature yesterday

Maximum temperature yesterday: 43 °F (at 4:00 PM)
Minimum temperature yesterday: 38 °F (at 9:00 PM)
Average temperature yesterday: 41 °F

Past Weeks' High & Low Weather Summary

 TemperatureHumidityPressure
High53 °F (Dec 18, 8:00 PM)100% (Dec 6, 11:00 AM)30.39 "Hg (Dec 6, 11:00 AM)
Low34 °F (Dec 9, 11:00 PM)60% (Dec 7, 3:00 PM)29.54 "Hg (Dec 12, 9:00 AM)
Average41 °F87%29.98 "Hg
* Reported Dec 6 6:00 AM — Dec 21 6:00 AM, Detmold, Weather by CustomWeather, © 2014

Note: Actual official high and low records may vary slightly from our data, if they occured in-between our weather recording intervals... More about our weather records

Advertising

Detmold weather history for previous 24 hours

 ConditionsComfort  
Time TempWeatherWind HumidityBarometerVisibility
6:00 AM
Dec 21
39 °FOvercast.2 mph88%30.34 "Hg14 mi
5:00 AM39 °FOvercast.3 mph89%30.34 "Hg13 mi
4:00 AM40 °FOvercast.3 mph87%30.33 "Hg14 mi
3:00 AM39 °FOvercast.3 mph90%30.32 "Hg14 mi
2:00 AM38 °FOvercast.5 mph89%30.29 "Hg18 mi
1:00 AM39 °FOvercast.6 mph88%30.27 "Hg19 mi
12:00 AM38 °FOvercast.5 mph89%30.25 "Hg19 mi
11:00 PM
Dec 20
38 °FOvercast.5 mph88%30.24 "Hg25 mi
10:00 PM38 °FOvercast.5 mph89%30.20 "Hg25 mi
9:00 PM38 °FOvercast.5 mph85%30.17 "Hg43 mi
8:00 PM39 °FOvercast.7 mph84%30.12 "Hg43 mi
7:00 PM41 °FOvercast.8 mph85%30.06 "Hg31 mi
6:00 PM41 °FOvercast.8 mph85%30.03 "Hg34 mi
5:00 PM41 °FLight freezing rain. Overcast.9 mph86%30.01 "Hg6 mi
4:00 PM43 °FDrizzle. Overcast.10 mph83%29.96 "Hg16 mi
3:00 PM42 °FDrizzle. Overcast.9 mph90%29.97 "Hg12 mi
2:00 PM42 °FLight freezing rain. Overcast.10 mph86%29.98 "Hg9 mi
1:00 PM42 °FOvercast.10 mph82%29.99 "Hg19 mi
12:00 PM42 °FDrizzle. Overcast.12 mph85%30.02 "Hg14 mi
11:00 AM42 °FOvercast.10 mph80%30.04 "Hg25 mi
10:00 AM42 °FOvercast.9 mph81%30.05 "Hg25 mi
9:00 AM42 °FOvercast.9 mph82%30.06 "Hg22 mi
8:00 AM42 °FOvercast.10 mph81%30.06 "Hg19 mi
7:00 AM41 °FOvercast.9 mph82%30.07 "Hg22 mi
Weather by CustomWeather, © 2014

See weather overviewHow to use our weather pages